Tracking 20945 objects as of 8-Jul-2020
HD Live streaming from Space Station
objects crossing your sky now

FENGYUN 1C DEB

Track FENGYUN 1C DEB now!
10-day predictions


NORAD ID: 38502
Int'l Code: 1999-025ESM
Perigee: 834.8 km
Apogee: 894.4 km
Inclination: 99.2 °
Period: 102.1 minutes
Semi major axis: 7235 km
RCS: 0.008 m2 (small)
Launch date: May 10, 1999
Source: People's Republic of China (PRC)
Launch site: Taiyaun Space Center, China (TSC)

Note: This is SATELLITE DEBRIS
aabbcc
Your satellite tracking list
Your tracking list is empty




NASA's NSSDC Master Catalog

Two Line Element Set (TLE):
1 38502U 99025ESM 20180.65028683  .00000448  00000-0  27543-3 0  9992
2 38502  99.1865 315.3320 0041190 223.8424 148.5085 14.10567731663826
Source of the keplerian elements: AFSPC